Change the Weather History Date:

Friday, July 19, 2013

  Actual Average Record
Temperature  
Mean Temperature 78 °F -  
Max Temperature 87 °F 80 °F 93 °F (1977)
Min Temperature 69 °F 60 °F 40 °F (1984)
Cooling Degree Days 13    
Growing Degree Days 28 (Base 50)    
Moisture  
Dew Point 68 °F    
Average Humidity 66    
Maximum Humidity 94    
Minimum Humidity 49    
Precipitation  
Precipitation 0.16 in - - ()
Sea Level Pressure  
Sea Level Pressure 29.76 in    
Wind  
Wind Speed 12 mph (SW)    
Max Wind Speed 24 mph    
Max Gust Speed 39 mph    
Visibility 10 miles    
Events Thunderstorm    
Averages and records for this station are not official NWS values.
T = Trace of Precipitation, MM = Missing Value Source: NWS Daily Summary

Daily Weather History Graph

Daily Weather History Graph

Search for Another Location

Airport or City:

Trip Planner

Search our weather history database for the weather conditions in past years. The results will help you decide how hot, cold, wet, or windy it might be!

Date:

Astronomy

Jul. 19, 2013 Rise Set
Actual Time 6:19 AM EDT 9:22 PM EDT
Civil Twilight 5:44 AM EDT 9:57 PM EDT
Nautical Twilight 4:59 AM EDT 10:41 PM EDT
Astronomical Twilight 4:06 AM EDT 11:35 PM EDT
Moon 6:24 PM EDT (7/19) 3:00 AM EDT (7/19)
Length of Visible Light 16h 13m
Length of Day
15h 03m
Waxing Gibbous, 86% of the Moon is Illuminated
Jul 19
Waxing Gibbous
Jul 22
Full
Jul 29
Last Quarter
Aug 6
New
Aug 14
First Quarter

Hourly Weather History & Observations

Time (EDT) Temp. Heat Index Dew Point Humidity Pressure Visibility Wind Dir Wind Speed Gust Speed Precip Events Conditions
12:15 AM 82.4 °F 86.3 °F 69.8 °F 66% 29.88 in 10.0 mi SW 10.4 mph 17.3 mph N/A   Clear
12:35 AM 84.2 °F 88.4 °F 69.8 °F 62% 29.88 in 10.0 mi SW 13.8 mph 19.6 mph N/A   Clear
12:55 AM 84.2 °F 88.4 °F 69.8 °F 62% 29.87 in 10.0 mi SW 9.2 mph 18.4 mph N/A   Clear
1:15 AM 84.2 °F 88.4 °F 69.8 °F 62% 29.87 in 10.0 mi WSW 13.8 mph 21.9 mph N/A   Clear
1:35 AM 84.2 °F 88.4 °F 69.8 °F 62% 29.86 in 10.0 mi SW 13.8 mph 21.9 mph N/A   Clear
1:55 AM 84.2 °F 88.4 °F 69.8 °F 62% 29.85 in 10.0 mi SW 12.7 mph 21.9 mph N/A   Clear
2:15 AM 84.2 °F 88.4 °F 69.8 °F 62% 29.84 in 10.0 mi SW 13.8 mph 24.2 mph N/A   Clear
2:35 AM 82.4 °F 86.3 °F 69.8 °F 66% 29.83 in 10.0 mi SW 13.8 mph 21.9 mph N/A   Clear
2:55 AM 82.4 °F 86.3 °F 69.8 °F 66% 29.83 in 10.0 mi SW 11.5 mph 20.7 mph N/A   Clear
3:15 AM 82.4 °F 86.3 °F 69.8 °F 66% 29.83 in 10.0 mi SW 13.8 mph 24.2 mph N/A   Clear
3:35 AM 82.4 °F 86.3 °F 69.8 °F 66% 29.82 in 10.0 mi SSW 8.1 mph 17.3 mph N/A   Clear
3:55 AM 80.6 °F 83.9 °F 69.8 °F 70% 29.81 in 10.0 mi SW 10.4 mph 17.3 mph N/A   Scattered Clouds
4:15 AM 80.6 °F 83.9 °F 69.8 °F 70% 29.80 in 10.0 mi SW 10.4 mph 16.1 mph N/A   Partly Cloudy
4:35 AM 80.6 °F 83.9 °F 69.8 °F 70% 29.79 in 10.0 mi SW 11.5 mph 20.7 mph N/A   Clear
4:55 AM 80.6 °F 83.9 °F 69.8 °F 70% 29.78 in 10.0 mi SW 12.7 mph 18.4 mph N/A   Clear
5:15 AM 80.6 °F 83.9 °F 69.8 °F 70% 29.78 in 10.0 mi SW 9.2 mph 19.6 mph N/A   Clear
5:35 AM 80.6 °F 83.9 °F 69.8 °F 70% 29.78 in 10.0 mi SSW 10.4 mph 18.4 mph N/A   Clear
5:55 AM 78.8 °F - 69.8 °F 74% 29.78 in 10.0 mi SSW 11.5 mph 19.6 mph N/A   Clear
6:15 AM 78.8 °F - 69.8 °F 74% 29.78 in 10.0 mi SSW 11.5 mph 18.4 mph N/A   Clear
6:35 AM 78.8 °F - 69.8 °F 74% 29.77 in 10.0 mi SSW 12.7 mph 18.4 mph N/A   Clear
6:55 AM 80.6 °F 83.9 °F 69.8 °F 70% 29.77 in 10.0 mi SSW 11.5 mph 17.3 mph N/A   Scattered Clouds
7:15 AM 80.6 °F 83.2 °F 68.0 °F 65% 29.77 in 10.0 mi SW 10.4 mph 18.4 mph N/A   Scattered Clouds
7:35 AM 80.6 °F 83.2 °F 68.0 °F 65% 29.77 in 10.0 mi SW 12.7 mph 19.6 mph N/A   Overcast
7:55 AM 80.6 °F 83.2 °F 68.0 °F 65% 29.76 in 10.0 mi SW 13.8 mph 19.6 mph N/A   Mostly Cloudy
8:15 AM 82.4 °F 85.4 °F 68.0 °F 62% 29.75 in 10.0 mi SW 9.2 mph 21.9 mph N/A   Mostly Cloudy
8:35 AM 80.6 °F 83.2 °F 68.0 °F 65% 29.75 in 10.0 mi SW 15.0 mph 23.0 mph N/A   Overcast
8:55 AM 82.4 °F 85.4 °F 68.0 °F 62% 29.76 in 10.0 mi SW 11.5 mph 21.9 mph N/A   Overcast
9:15 AM 82.4 °F 84.6 °F 66.2 °F 58% 29.76 in 10.0 mi WSW 20.7 mph 24.2 mph N/A   Overcast
9:35 AM 82.4 °F 84.6 °F 66.2 °F 58% 29.76 in 10.0 mi SW 17.3 mph 25.3 mph N/A   Mostly Cloudy
9:55 AM 82.4 °F 84.6 °F 66.2 °F 58% 29.76 in 10.0 mi SW 24.2 mph 29.9 mph N/A   Overcast
10:15 AM 82.4 °F 84.6 °F 66.2 °F 58% 29.76 in 10.0 mi SW 13.8 mph 27.6 mph N/A   Overcast
10:35 AM 82.4 °F 84.6 °F 66.2 °F 58% 29.75 in 10.0 mi SW 19.6 mph 28.8 mph N/A   Mostly Cloudy
10:55 AM 82.4 °F 84.6 °F 66.2 °F 58% 29.74 in 10.0 mi SW 15.0 mph 24.2 mph N/A   Overcast
11:15 AM 84.2 °F 86.6 °F 66.2 °F 55% 29.73 in 10.0 mi WSW 15.0 mph 23.0 mph N/A   Mostly Cloudy
11:35 AM 84.2 °F 86.6 °F 66.2 °F 55% 29.74 in 10.0 mi WSW 18.4 mph 25.3 mph N/A   Mostly Cloudy
11:55 AM 84.2 °F 86.6 °F 66.2 °F 55% 29.74 in 10.0 mi WSW 18.4 mph 31.1 mph N/A   Partly Cloudy
12:15 PM 82.4 °F 84.6 °F 66.2 °F 58% 29.73 in 10.0 mi SW 11.5 mph 25.3 mph N/A   Partly Cloudy
12:35 PM 84.2 °F 86.6 °F 66.2 °F 55% 29.74 in 10.0 mi SW 15.0 mph 25.3 mph N/A   Partly Cloudy
12:55 PM 82.4 °F 84.6 °F 66.2 °F 58% 29.74 in 10.0 mi WSW 10.4 mph 21.9 mph N/A   Clear
1:15 PM 84.2 °F 87.3 °F 68.0 °F 58% 29.73 in 10.0 mi WSW 13.8 mph 23.0 mph N/A   Clear
1:35 PM 87.8 °F 91.4 °F 68.0 °F 52% 29.73 in 10.0 mi WSW 13.8 mph 24.2 mph N/A   Clear
1:55 PM 87.8 °F 90.4 °F 66.2 °F 49% 29.74 in 10.0 mi WSW 18.4 mph 26.5 mph N/A   Scattered Clouds
2:15 PM 87.8 °F 91.4 °F 68.0 °F 52% 29.74 in 10.0 mi WSW 17.3 mph 25.3 mph N/A   Partly Cloudy
2:35 PM 87.8 °F 91.4 °F 68.0 °F 52% 29.74 in 10.0 mi WSW 17.3 mph 24.2 mph N/A   Clear
2:55 PM 87.8 °F 92.6 °F 69.8 °F 55% 29.74 in 10.0 mi WSW 11.5 mph 21.9 mph N/A   Clear
3:15 PM 87.8 °F 92.6 °F 69.8 °F 55% 29.73 in 10.0 mi WSW 15.0 mph 20.7 mph N/A   Clear
3:35 PM 87.8 °F 92.6 °F 69.8 °F 55% 29.73 in 10.0 mi WSW 16.1 mph 20.7 mph N/A   Clear
3:55 PM 86.0 °F 90.4 °F 69.8 °F 58% 29.73 in 10.0 mi WSW 12.7 mph - N/A   Scattered Clouds
4:15 PM 84.2 °F 88.4 °F 69.8 °F 62% 29.73 in 10.0 mi WSW 11.5 mph 16.1 mph N/A   Overcast
4:35 PM 87.8 °F 92.6 °F 69.8 °F 55% 29.72 in 10.0 mi WSW 12.7 mph 18.4 mph N/A   Scattered Clouds
4:55 PM 87.8 °F 92.6 °F 69.8 °F 55% 29.71 in 10.0 mi WSW 11.5 mph 20.7 mph N/A   Clear
5:15 PM 87.8 °F 92.6 °F 69.8 °F 55% 29.71 in 10.0 mi WSW 10.4 mph 18.4 mph N/A   Clear
5:35 PM 87.8 °F 92.6 °F 69.8 °F 55% 29.71 in 10.0 mi WSW 11.5 mph 18.4 mph N/A   Clear
5:55 PM 87.8 °F 92.6 °F 69.8 °F 55% 29.70 in 10.0 mi WSW 12.7 mph 21.9 mph N/A   Clear
6:15 PM 87.8 °F 92.6 °F 69.8 °F 55% 29.70 in 10.0 mi WSW 12.7 mph 18.4 mph N/A   Clear
6:35 PM 86.0 °F 89.4 °F 68.0 °F 55% 29.69 in 10.0 mi West 10.4 mph - N/A Thunderstorm Clear
6:55 PM 80.6 °F 83.2 °F 68.0 °F 65% 29.73 in 5.0 mi West 24.2 mph 39.1 mph 0.09 in Thunderstorm Thunderstorm
7:15 PM 73.4 °F - 66.2 °F 78% 29.71 in 10.0 mi West 9.2 mph - 0.07 in Thunderstorm Thunderstorm
7:35 PM 73.4 °F - 66.2 °F 78% 29.72 in 10.0 mi WSW 6.9 mph - 0.07 in Thunderstorm Scattered Clouds
7:55 PM 75.2 °F - 66.2 °F 73% 29.71 in 10.0 mi SSW 3.5 mph - 0.07 in   Clear
8:15 PM 75.2 °F - 68.0 °F 78% 29.72 in 10.0 mi Calm Calm - N/A   Clear
8:35 PM 75.2 °F - 69.8 °F 83% 29.73 in 10.0 mi SE 3.5 mph - N/A   Clear
8:55 PM 75.2 °F - 69.8 °F 83% 29.73 in 10.0 mi SSE 3.5 mph - N/A   Scattered Clouds
9:15 PM 73.4 °F - 69.8 °F 88% 29.74 in 10.0 mi NW 3.5 mph - N/A   Partly Cloudy
9:35 PM 73.4 °F - 69.8 °F 88% 29.74 in 10.0 mi Calm Calm - N/A   Partly Cloudy
9:55 PM 71.6 °F - 68.0 °F 88% 29.74 in 10.0 mi Calm Calm - N/A   Partly Cloudy
10:15 PM 71.6 °F - 68.0 °F 88% 29.75 in 8.0 mi Calm Calm - N/A   Clear
10:35 PM 71.6 °F - 69.8 °F 94% 29.75 in 10.0 mi North 5.8 mph - N/A   Partly Cloudy
10:55 PM 71.6 °F - 66.2 °F 83% 29.76 in 10.0 mi North 4.6 mph - N/A   Clear
11:15 PM 71.6 °F - 66.2 °F 83% 29.77 in 10.0 mi NE 4.6 mph - N/A   Clear
11:35 PM 69.8 °F - 64.4 °F 83% 29.77 in 10.0 mi ENE 3.5 mph - N/A   Partly Cloudy
11:55 PM 69.8 °F - 64.4 °F 83% 29.78 in 10.0 mi East 4.6 mph - N/A   Scattered Clouds